Time,TemperatureF,DewpointF,PressureIn,WindDirection,WindDirectionDegrees,WindSpeedMPH,WindSpeedGustMPH,Humidity,HourlyPrecipIn,Conditions,Clouds,dailyrainin,SoftwareType,DateUTC
2013-03-22 00:04:00,56.0,-99.9,29.93,SSW,208,3.0,4.0,-999,-99.99,,,-99.99,,2013-03-22 04:04:00,
2013-03-22 00:13:00,55.0,-99.9,29.93,WSW,257,0.0,2.0,-999,-99.99,,,-99.99,,2013-03-22 04:13:00,
2013-03-22 00:23:00,54.0,-99.9,29.93,SSW,212,2.0,3.0,-999,-99.99,,,-99.99,,2013-03-22 04:23:00,
2013-03-22 00:32:00,54.0,-99.9,29.93,WSW,248,3.0,4.0,-999,-99.99,,,-99.99,,2013-03-22 04:32:00,
2013-03-22 00:43:00,59.0,-99.9,29.93,WSW,245,5.0,6.0,-999,-99.99,,,-99.99,,2013-03-22 04:43:00,
2013-03-22 00:53:00,61.0,-99.9,29.93,WSW,252,5.0,6.0,-999,-99.99,,,-99.99,,2013-03-22 04:53:00,
2013-03-22 01:02:00,60.0,-99.9,29.93,WSW,256,6.0,8.0,-999,-99.99,,,-99.99,,2013-03-22 05:02:00,
2013-03-22 01:13:00,58.0,-99.9,29.93,WSW,240,6.0,8.0,-999,-99.99,,,-99.99,,2013-03-22 05:13:00,
2013-03-22 01:22:00,59.0,-99.9,29.93,WSW,242,7.0,8.0,-999,-99.99,,,-99.99,,2013-03-22 05:22:00,
2013-03-22 01:32:00,58.0,-99.9,29.93,SW,236,6.0,8.0,-999,-99.99,,,-99.99,,2013-03-22 05:32:00,
2013-03-22 01:42:00,58.0,-99.9,29.93,SW,235,5.0,6.0,-999,-99.99,,,-99.99,,2013-03-22 05:42:00,
2013-03-22 01:52:00,58.0,-99.9,29.93,SW,229,4.0,7.0,-999,-99.99,,,-99.99,,2013-03-22 05:52:00,
2013-03-22 02:02:00,58.0,-99.9,29.93,West,266,5.0,5.0,-999,-99.99,,,-99.99,,2013-03-22 06:02:00,
2013-03-22 02:13:00,59.0,-99.9,29.93,West,268,6.0,7.0,-999,-99.99,,,-99.99,,2013-03-22 06:13:00,
2013-03-22 02:22:00,59.0,-99.9,29.93,West,261,6.0,7.0,-999,-99.99,,,-99.99,,2013-03-22 06:22:00,
2013-03-22 02:32:00,58.0,-99.9,29.93,West,265,5.0,7.0,-999,-99.99,,,-99.99,,2013-03-22 06:32:00,
2013-03-22 02:43:00,58.0,-99.9,29.92,West,261,4.0,5.0,-999,-99.99,,,-99.99,,2013-03-22 06:43:00,
2013-03-22 02:52:00,58.0,-99.9,29.92,West,266,6.0,7.0,-999,-99.99,,,-99.99,,2013-03-22 06:52:00,
2013-03-22 03:03:00,57.0,-99.9,29.93,West,274,4.0,6.0,-999,-99.99,,,-99.99,,2013-03-22 07:03:00,
2013-03-22 03:12:00,57.0,-99.9,29.92,West,275,5.0,6.0,-999,-99.99,,,-99.99,,2013-03-22 07:12:00,
2013-03-22 03:22:00,57.0,-99.9,29.92,WNW,282,5.0,6.0,-999,-99.99,,,-99.99,,2013-03-22 07:22:00,
2013-03-22 03:32:00,57.0,-99.9,29.92,WNW,295,4.0,6.0,-999,-99.99,,,-99.99,,2013-03-22 07:32:00,
2013-03-22 03:42:00,57.0,-99.9,29.91,WNW,283,3.0,6.0,-999,-99.99,,,-99.99,,2013-03-22 07:42:00,
2013-03-22 03:52:00,57.0,-99.9,29.91,West,275,4.0,6.0,-999,-99.99,,,-99.99,,2013-03-22 07:52:00,
2013-03-22 04:03:00,57.0,-99.9,29.92,NW,309,5.0,8.0,-999,-99.99,,,-99.99,,2013-03-22 08:03:00,
2013-03-22 04:13:00,57.0,-99.9,29.92,NW,314,4.0,7.0,-999,-99.99,,,-99.99,,2013-03-22 08:13:00,
2013-03-22 04:22:00,57.0,-99.9,29.92,NNW,331,4.0,6.0,-999,-99.99,,,-99.99,,2013-03-22 08:22:00,
2013-03-22 04:32:00,56.0,-99.9,29.92,NW,324,5.0,6.0,-999,-99.99,,,-99.99,,2013-03-22 08:32:00,
2013-03-22 04:42:00,56.0,-99.9,29.92,NNW,332,3.0,4.0,-999,-99.99,,,-99.99,,2013-03-22 08:42:00,
2013-03-22 04:52:00,54.0,-99.9,29.91,NNW,346,4.0,5.0,-999,-99.99,,,-99.99,,2013-03-22 08:52:00,
2013-03-22 05:03:00,53.0,-99.9,29.91,North,349,3.0,4.0,-999,-99.99,,,-99.99,,2013-03-22 09:03:00,
2013-03-22 05:12:00,53.0,-99.9,29.91,North,349,3.0,4.0,-999,-99.99,,,-99.99,,2013-03-22 09:12:00,
2013-03-22 05:22:00,53.0,-99.9,29.91,NNW,348,3.0,4.0,-999,-99.99,,,-99.99,,2013-03-22 09:22:00,
2013-03-22 05:33:00,53.0,-99.9,29.91,North,350,2.0,4.0,-999,-99.99,,,-99.99,,2013-03-22 09:33:00,
2013-03-22 05:42:00,53.0,-99.9,29.91,NNW,344,2.0,3.0,-999,-99.99,,,-99.99,,2013-03-22 09:42:00,
2013-03-22 05:53:00,52.0,-99.9,29.91,North,6,2.0,3.0,-999,-99.99,,,-99.99,,2013-03-22 09:53:00,
2013-03-22 06:04:00,52.0,-99.9,29.92,North,3,3.0,3.0,-999,-99.99,,,-99.99,,2013-03-22 10:04:00,
2013-03-22 06:12:00,52.0,-99.9,29.92,North,4,2.0,3.0,-999,-99.99,,,-99.99,,2013-03-22 10:12:00,
2013-03-22 06:23:00,52.0,-99.9,29.92,NNW,328,2.0,3.0,-999,-99.99,,,-99.99,,2013-03-22 10:23:00,
2013-03-22 06:33:00,53.0,-99.9,29.93,NNW,330,1.0,2.0,-999,-99.99,,,-99.99,,2013-03-22 10:33:00,
2013-03-22 06:42:00,54.0,-99.9,29.93,NNW,336,1.0,2.0,-999,-99.99,,,-99.99,,2013-03-22 10:42:00,
2013-03-22 06:52:00,54.0,-99.9,29.93,North,354,1.0,2.0,-999,-99.99,,,-99.99,,2013-03-22 10:52:00,
2013-03-22 07:03:00,54.0,-99.9,29.94,NNW,328,1.0,2.0,-999,-99.99,,,-99.99,,2013-03-22 11:03:00,
2013-03-22 07:12:00,54.0,-99.9,29.95,NNW,334,1.0,2.0,-999,-99.99,,,-99.99,,2013-03-22 11:12:00,
2013-03-22 07:22:00,54.0,-99.9,29.95,NNW,328,2.0,3.0,-999,-99.99,,,-99.99,,2013-03-22 11:22:00,
2013-03-22 07:33:00,54.0,-99.9,29.95,NW,322,2.0,3.0,-999,-99.99,,,-99.99,,2013-03-22 11:33:00,
2013-03-22 07:42:00,52.0,-99.9,29.96,North,1,3.0,4.0,-999,-99.99,,,-99.99,,2013-03-22 11:42:00,
2013-03-22 07:52:00,52.0,-99.9,29.96,NNW,339,4.0,5.0,-999,-99.99,,,-99.99,,2013-03-22 11:52:00,
2013-03-22 08:02:00,52.0,-99.9,29.98,NNE,17,3.0,4.0,-999,-99.99,,,-99.99,,2013-03-22 12:02:00,
2013-03-22 08:12:00,54.0,-99.9,29.98,NNW,327,2.0,2.0,-999,-99.99,,,-99.99,,2013-03-22 12:12:00,
2013-03-22 08:22:00,55.0,-99.9,29.98,NNW,346,2.0,3.0,-999,-99.99,,,-99.99,,2013-03-22 12:22:00,
2013-03-22 08:32:00,57.0,-99.9,29.99,North,8,1.0,2.0,-999,-99.99,,,-99.99,,2013-03-22 12:32:00,
2013-03-22 08:42:00,58.0,-99.9,29.99,North,350,3.0,3.0,-999,-99.99,,,-99.99,,2013-03-22 12:42:00,
2013-03-22 08:52:00,60.0,-99.9,30.00,North,354,4.0,4.0,-999,-99.99,,,-99.99,,2013-03-22 12:52:00,
2013-03-22 09:02:00,60.0,-99.9,30.00,North,352,4.0,6.0,-999,-99.99,,,-99.99,,2013-03-22 13:02:00,
2013-03-22 09:13:00,61.0,-99.9,30.00,North,359,5.0,7.0,-999,-99.99,,,-99.99,,2013-03-22 13:13:00,
2013-03-22 09:22:00,62.0,-99.9,30.00,North,4,3.0,5.0,-999,-99.99,,,-99.99,,2013-03-22 13:22:00,
2013-03-22 09:32:00,63.0,-99.9,30.00,NNE,12,4.0,5.0,-999,-99.99,,,-99.99,,2013-03-22 13:32:00,
2013-03-22 09:42:00,63.0,-99.9,30.00,North,10,5.0,7.0,-999,-99.99,,,-99.99,,2013-03-22 13:42:00,
2013-03-22 09:53:00,64.0,-99.9,30.00,NNE,13,5.0,7.0,-999,-99.99,,,-99.99,,2013-03-22 13:53:00,
2013-03-22 10:03:00,65.0,-99.9,30.01,NNE,15,4.0,7.0,-999,-99.99,,,-99.99,,2013-03-22 14:03:00,
2013-03-22 10:12:00,65.0,-99.9,30.02,NNE,12,5.0,7.0,-999,-99.99,,,-99.99,,2013-03-22 14:12:00,
2013-03-22 10:22:00,67.0,-99.9,30.01,NNE,17,5.0,8.0,-999,-99.99,,,-99.99,,2013-03-22 14:22:00,
2013-03-22 10:32:00,68.0,-99.9,30.02,NE,48,4.0,8.0,-999,-99.99,,,-99.99,,2013-03-22 14:32:00,
2013-03-22 10:43:00,68.0,-99.9,30.02,ENE,60,8.0,11.0,-999,-99.99,,,-99.99,,2013-03-22 14:43:00,
2013-03-22 10:52:00,68.0,-99.9,30.01,ENE,67,8.0,12.0,-999,-99.99,,,-99.99,,2013-03-22 14:52:00,
2013-03-22 11:03:00,68.0,-99.9,30.01,ENE,71,9.0,13.0,-999,-99.99,,,-99.99,,2013-03-22 15:03:00,
2013-03-22 11:12:00,68.0,-99.9,30.01,NE,49,10.0,12.0,-999,-99.99,,,-99.99,,2013-03-22 15:12:00,
2013-03-22 11:22:00,68.0,-99.9,30.01,NE,36,9.0,12.0,-999,-99.99,,,-99.99,,2013-03-22 15:22:00,
2013-03-22 11:33:00,69.0,-99.9,30.01,ENE,67,9.0,13.0,-999,-99.99,,,-99.99,,2013-03-22 15:33:00,
2013-03-22 11:43:00,70.0,-99.9,30.01,East,84,6.0,12.0,-999,-99.99,,,-99.99,,2013-03-22 15:43:00,
2013-03-22 11:53:00,68.0,-99.9,30.02,ENE,65,7.0,11.0,-999,-99.99,,,-99.99,,2013-03-22 15:53:00,
2013-03-22 12:03:00,69.0,-99.9,30.02,ENE,73,8.0,11.0,-999,-99.99,,,-99.99,,2013-03-22 16:03:00,
2013-03-22 12:13:00,69.0,-99.9,30.01,East,87,8.0,11.0,-999,-99.99,,,-99.99,,2013-03-22 16:13:00,
2013-03-22 12:23:00,69.0,-99.9,30.01,ENE,77,8.0,11.0,-999,-99.99,,,-99.99,,2013-03-22 16:23:00,
2013-03-22 12:32:00,69.0,-99.9,30.01,East,85,7.0,10.0,-999,-99.99,,,-99.99,,2013-03-22 16:32:00,
2013-03-22 12:42:00,71.0,-99.9,30.00,East,81,7.0,12.0,-999,-99.99,,,-99.99,,2013-03-22 16:42:00,
2013-03-22 12:53:00,70.0,-99.9,30.00,East,89,8.0,11.0,-999,-99.99,,,-99.99,,2013-03-22 16:53:00,
2013-03-22 13:03:00,70.0,-99.9,30.01,East,90,9.0,11.0,-999,-99.99,,,-99.99,,2013-03-22 17:03:00,
2013-03-22 13:12:00,70.0,-99.9,30.00,ESE,103,8.0,10.0,-999,-99.99,,,-99.99,,2013-03-22 17:12:00,
2013-03-22 13:23:00,72.0,-99.9,30.00,East,94,6.0,10.0,-999,-99.99,,,-99.99,,2013-03-22 17:23:00,
2013-03-22 13:33:00,71.0,-99.9,29.99,East,83,8.0,12.0,-999,-99.99,,,-99.99,,2013-03-22 17:33:00,
2013-03-22 13:43:00,71.0,-99.9,29.99,East,79,8.0,12.0,-999,-99.99,,,-99.99,,2013-03-22 17:43:00,
2013-03-22 13:53:00,71.0,-99.9,29.98,ENE,75,9.0,13.0,-999,-99.99,,,-99.99,,2013-03-22 17:53:00,
2013-03-22 14:02:00,70.0,-99.9,29.99,East,92,8.0,12.0,-999,-99.99,,,-99.99,,2013-03-22 18:02:00,
2013-03-22 14:12:00,71.0,-99.9,29.98,East,84,6.0,11.0,-999,-99.99,,,-99.99,,2013-03-22 18:12:00,
2013-03-22 14:22:00,72.0,-99.9,29.98,East,96,6.0,11.0,-999,-99.99,,,-99.99,,2013-03-22 18:22:00,
2013-03-22 14:33:00,73.0,-99.9,29.98,ESE,123,6.0,10.0,-999,-99.99,,,-99.99,,2013-03-22 18:33:00,
2013-03-22 14:42:00,73.0,-99.9,29.97,ESE,106,5.0,11.0,-999,-99.99,,,-99.99,,2013-03-22 18:42:00,
2013-03-22 14:52:00,72.0,-99.9,29.96,ESE,118,5.0,9.0,-999,-99.99,,,-99.99,,2013-03-22 18:52:00,
2013-03-22 15:02:00,72.0,-99.9,29.96,ESE,107,6.0,10.0,-999,-99.99,,,-99.99,,2013-03-22 19:02:00,
2013-03-22 15:12:00,73.0,-99.9,29.96,SE,137,7.0,11.0,-999,-99.99,,,-99.99,,2013-03-22 19:12:00,
2013-03-22 15:22:00,73.0,-99.9,29.96,SE,128,6.0,11.0,-999,-99.99,,,-99.99,,2013-03-22 19:22:00,
2013-03-22 15:33:00,73.0,-99.9,29.96,ESE,118,6.0,11.0,-999,-99.99,,,-99.99,,2013-03-22 19:33:00,
2013-03-22 15:43:00,72.0,-99.9,29.95,ESE,123,7.0,10.0,-999,-99.99,,,-99.99,,2013-03-22 19:43:00,
2013-03-22 15:52:00,72.0,-99.9,29.96,SE,130,7.0,10.0,-999,-99.99,,,-99.99,,2013-03-22 19:52:00,
2013-03-22 16:02:00,73.0,-99.9,29.95,East,95,7.0,12.0,-999,-99.99,,,-99.99,,2013-03-22 20:02:00,
2013-03-22 16:13:00,73.0,-99.9,29.94,East,91,7.0,13.0,-999,-99.99,,,-99.99,,2013-03-22 20:13:00,
2013-03-22 16:22:00,72.0,-99.9,29.94,East,88,9.0,14.0,-999,-99.99,,,-99.99,,2013-03-22 20:22:00,
2013-03-22 16:32:00,74.0,-99.9,29.93,East,95,7.0,12.0,-999,-99.99,,,-99.99,,2013-03-22 20:32:00,
2013-03-22 16:43:00,72.0,-99.9,29.93,East,93,11.0,13.0,-999,-99.99,,,-99.99,,2013-03-22 20:43:00,
2013-03-22 16:52:00,73.0,-99.9,29.93,ESE,106,8.0,13.0,-999,-99.99,,,-99.99,,2013-03-22 20:52:00,
2013-03-22 17:03:00,72.0,-99.9,29.92,East,99,10.0,15.0,-999,-99.99,,,-99.99,,2013-03-22 21:03:00,
2013-03-22 17:12:00,73.0,-99.9,29.92,ESE,102,8.0,13.0,-999,-99.99,,,-99.99,,2013-03-22 21:12:00,
2013-03-22 17:22:00,73.0,-99.9,29.92,East,97,6.0,11.0,-999,-99.99,,,-99.99,,2013-03-22 21:22:00,
2013-03-22 17:33:00,73.0,-99.9,29.92,ESE,114,8.0,12.0,-999,-99.99,,,-99.99,,2013-03-22 21:33:00,
2013-03-22 17:43:00,71.0,-99.9,29.92,ESE,103,7.0,11.0,-999,-99.99,,,-99.99,,2013-03-22 21:43:00,
2013-03-22 17:53:00,71.0,-99.9,29.93,East,92,7.0,10.0,-999,-99.99,,,-99.99,,2013-03-22 21:53:00,
2013-03-22 18:03:00,69.0,-99.9,29.93,East,99,7.0,10.0,-999,-99.99,,,-99.99,,2013-03-22 22:03:00,
2013-03-22 18:12:00,69.0,-99.9,29.93,ESE,104,5.0,9.0,-999,-99.99,,,-99.99,,2013-03-22 22:12:00,
2013-03-22 18:23:00,69.0,-99.9,29.93,ESE,122,4.0,8.0,-999,-99.99,,,-99.99,,2013-03-22 22:23:00,
2013-03-22 18:32:00,69.0,-99.9,29.93,ESE,122,5.0,9.0,-999,-99.99,,,-99.99,,2013-03-22 22:32:00,
2013-03-22 18:43:00,68.0,-99.9,29.93,ESE,113,4.0,7.0,-999,-99.99,,,-99.99,,2013-03-22 22:43:00,
2013-03-22 18:53:00,69.0,-99.9,29.93,ESE,113,3.0,7.0,-999,-99.99,,,-99.99,,2013-03-22 22:53:00,
2013-03-22 19:02:00,69.0,-99.9,29.94,East,89,4.0,6.0,-999,-99.99,,,-99.99,,2013-03-22 23:02:00,
2013-03-22 19:12:00,69.0,-99.9,29.94,East,92,4.0,7.0,-999,-99.99,,,-99.99,,2013-03-22 23:12:00,
2013-03-22 19:23:00,69.0,-99.9,29.94,East,93,4.0,6.0,-999,-99.99,,,-99.99,,2013-03-22 23:23:00,
2013-03-22 19:33:00,69.0,-99.9,29.95,SSE,163,8.0,13.0,-999,-99.99,,,-99.99,,2013-03-22 23:33:00,
2013-03-22 19:42:00,68.0,-99.9,29.95,SSE,159,8.0,14.0,-999,-99.99,,,-99.99,,2013-03-22 23:42:00,
2013-03-22 19:52:00,68.0,-99.9,29.95,SSE,164,9.0,18.0,-999,-99.99,,,-99.99,,2013-03-22 23:52:00,
2013-03-22 20:02:00,67.0,-99.9,29.96,SSE,162,9.0,15.0,-999,-99.99,,,-99.99,,2013-03-23 00:02:00,
2013-03-22 20:12:00,67.0,-99.9,29.96,SSE,166,11.0,16.0,-999,-99.99,,,-99.99,,2013-03-23 00:12:00,
2013-03-22 20:23:00,67.0,-99.9,29.96,SSE,168,9.0,17.0,-999,-99.99,,,-99.99,,2013-03-23 00:23:00,
2013-03-22 20:33:00,67.0,-99.9,29.96,SSE,154,10.0,15.0,-999,-99.99,,,-99.99,,2013-03-23 00:33:00,
2013-03-22 20:42:00,66.0,-99.9,29.98,SE,144,6.0,12.0,-999,-99.99,,,-99.99,,2013-03-23 00:42:00,
2013-03-22 20:52:00,66.0,-99.9,29.97,SE,139,8.0,12.0,-999,-99.99,,,-99.99,,2013-03-23 00:52:00,
2013-03-22 21:03:00,65.0,-99.9,29.97,SSE,148,10.0,15.0,-999,-99.99,,,-99.99,,2013-03-23 01:03:00,
2013-03-22 21:12:00,65.0,-99.9,29.97,SSE,151,8.0,14.0,-999,-99.99,,,-99.99,,2013-03-23 01:12:00,
2013-03-22 21:22:00,65.0,-99.9,29.97,SE,136,8.0,14.0,-999,-99.99,,,-99.99,,2013-03-23 01:22:00,
2013-03-22 21:33:00,65.0,-99.9,29.98,SE,132,7.0,11.0,-999,-99.99,,,-99.99,,2013-03-23 01:33:00,
2013-03-22 21:43:00,65.0,-99.9,29.98,SE,127,6.0,10.0,-999,-99.99,,,-99.99,,2013-03-23 01:43:00,
2013-03-22 21:53:00,65.0,-99.9,29.98,ESE,123,5.0,9.0,-999,-99.99,,,-99.99,,2013-03-23 01:53:00,
2013-03-22 22:02:00,65.0,-99.9,29.98,ESE,102,4.0,9.0,-999,-99.99,,,-99.99,,2013-03-23 02:02:00,
2013-03-22 22:12:00,65.0,-99.9,29.98,ESE,109,4.0,10.0,-999,-99.99,,,-99.99,,2013-03-23 02:12:00,
2013-03-22 22:23:00,66.0,-99.9,29.99,East,96,6.0,11.0,-999,-99.99,,,-99.99,,2013-03-23 02:23:00,
2013-03-22 22:32:00,66.0,-99.9,29.99,East,98,6.0,11.0,-999,-99.99,,,-99.99,,2013-03-23 02:32:00,
2013-03-22 22:42:00,66.0,-99.9,29.99,East,96,7.0,11.0,-999,-99.99,,,-99.99,,2013-03-23 02:42:00,
2013-03-22 22:52:00,66.0,-99.9,29.99,East,96,8.0,14.0,-999,-99.99,,,-99.99,,2013-03-23 02:52:00,
2013-03-22 23:03:00,66.0,-99.9,29.99,East,95,9.0,14.0,-999,-99.99,,,-99.99,,2013-03-23 03:03:00,
2013-03-22 23:12:00,66.0,-99.9,29.99,ESE,105,7.0,12.0,-999,-99.99,,,-99.99,,2013-03-23 03:12:00,
2013-03-22 23:23:00,66.0,-99.9,29.98,ESE,102,8.0,13.0,-999,-99.99,,,-99.99,,2013-03-23 03:23:00,
2013-03-22 23:34:00,66.0,-99.9,29.99,East,100,8.0,12.0,-999,-99.99,,,-99.99,,2013-03-23 03:34:00,
2013-03-22 23:44:00,66.0,-99.9,29.99,ESE,104,7.0,12.0,-999,-99.99,,,-99.99,,2013-03-23 03:44:00,
2013-03-22 23:53:00,66.0,-99.9,29.99,East,100,8.0,11.0,-999,-99.99,,,-99.99,,2013-03-23 03:53:00,